User: anonymous   Login
Location: Bois de la Silve
(44.4667°N, 6.7833°E)
Time: 13:14:55
(UTC+00:00)
Language:

Cosmos 407 Rocket - Orbit

View from above orbital plane
View from above orbital plane
View from above satellite
View from above satellite

Ground track
Ground track

The orbit data is extracted from the following two-line orbital elements,

1  5175U 71035B   20274.92285251 +.00000037 +00000-0 +20628-4 0  9995
2  5175 074.0488 157.7720 0028909 068.1715 292.2509 14.37992390587428
Epoch (UTC): 30 September 2020 22:08:54
Eccentricity: 0.0028909
inclination: 74.0488°
perigee height: 744 km
apogee height: 786 km
right ascension of ascending node: 157.7720°
argument of perigee: 68.1715°
revolutions per day: 14.37992390
mean anomaly at epoch: 292.2509°
orbit number at epoch: 58742

The dashed part of the orbit path shows where the satellite is in the earth's shadow,  

DLR